Location: Ottawa (KS)
(38.6160°N, 95.2680°W)
Time: 12:26:02
(UTC-06:00)

ISS - Visible Passes

Search period start: 21 January 2019 00:00
Search period end: 31 January 2019 00:00
Orbit: 404 x 410 km, 51.6° (Epoch: 22 January)

Date Brightness Start Highest point End Pass type
(mag) Time Alt. Az. Time Alt. Az. Time Alt. Az.
21 Jan -2.7 19:27:27 10° SW 19:29:51 45° WSW 19:29:51 45° WSW visible
22 Jan -3.5 18:36:16 10° SW 18:39:27 52° SE 18:40:59 26° ENE visible
22 Jan -0.3 20:13:36 10° WNW 20:13:43 11° WNW 20:13:43 11° WNW visible
23 Jan -2.4 19:21:42 10° W 19:24:42 32° NNW 19:24:45 32° NNW visible
24 Jan -3.4 18:30:01 10° WSW 18:33:16 57° NW 18:35:43 16° NE visible
25 Jan -1.6 19:16:25 10° WNW 19:18:46 18° NNW 19:19:20 17° N visible
26 Jan -2.1 18:24:23 10° W 18:27:12 26° NNW 18:30:03 10° NNE visible
27 Jan -1.2 19:11:37 10° NW 19:12:56 12° NNW 19:13:38 11° N visible
28 Jan -1.4 18:19:11 10° WNW 18:21:15 15° NNW 18:23:20 10° NNE visible
30 Jan -1.2 18:14:31 10° NNW 18:15:23 11° NNW 18:16:14 10° N visible
